status,avgMeasuredTime,avgSpeed,extID,medianMeasuredTime,TIMESTAMP,vehicleCount,_id,REPORT_ID
OK,158,51,819,158,2014-08-01T07:55:00,0,20746543,210093
OK,158,51,819,158,2014-08-01T08:00:00,0,20746874,210093
OK,158,51,819,158,2014-08-01T08:05:00,0,20747323,210093
OK,158,51,819,158,2014-08-01T08:10:00,0,20747696,210093
OK,786,10,819,786,2014-08-01T08:15:00,3,20748145,210093
OK,786,10,819,786,2014-08-01T08:20:00,4,20748594,210093
OK,818,10,819,818,2014-08-01T08:25:00,1,20749043,210093
OK,248,33,819,248,2014-08-01T08:30:00,3,20749492,210093
OK,246,33,819,246,2014-08-01T08:35:00,2,20749941,210093
OK,246,33,819,246,2014-08-01T08:40:00,0,20750390,210093
OK,246,33,819,246,2014-08-01T08:45:00,0,20750839,210093
OK,246,33,819,246,2014-08-01T08:50:00,0,20751288,210093
OK,246,33,819,246,2014-08-01T08:55:00,0,20751737,210093
OK,246,33,819,246,2014-08-01T09:00:00,0,20752186,210093
OK,246,33,819,246,2014-08-01T09:05:00,0,20752635,210093
OK,246,33,819,246,2014-08-01T09:10:00,0,20753084,210093
OK,246,33,819,246,2014-08-01T09:15:00,0,20753533,210093
OK,246,33,819,246,2014-08-01T09:20:00,0,20753982,210093
OK,246,33,819,246,2014-08-01T09:25:00,0,20754431,210093
OK,246,33,819,246,2014-08-01T09:30:00,0,20754880,210093
OK,246,33,819,246,2014-08-01T09:35:00,0,20755329,210093
OK,246,33,819,246,2014-08-01T09:40:00,0,20755778,210093
OK,246,33,819,246,2014-08-01T09:45:00,0,20756227,210093
OK,246,33,819,246,2014-08-01T09:50:00,0,20756676,210093
OK,246,33,819,246,2014-08-01T09:55:00,0,20757125,210093
OK,235,34,819,235,2014-08-01T10:00:00,1,20757574,210093
OK,259,31,819,259,2014-08-01T10:05:00,1,20758023,210093
OK,259,31,819,259,2014-08-01T10:10:00,0,20758472,210093
OK,259,31,819,259,2014-08-01T10:15:00,0,20758921,210093
OK,259,31,819,259,2014-08-01T10:20:00,0,20759370,210093
OK,259,31,819,259,2014-08-01T10:25:00,0,20759819,210093
OK,225,36,819,225,2014-08-01T10:30:00,1,20760268,210093
OK,225,36,819,225,2014-08-01T10:35:00,1,20760717,210093
OK,225,36,819,225,2014-08-01T10:40:00,0,20761166,210093
OK,225,36,819,225,2014-08-01T10:45:00,0,20761615,210093
OK,225,36,819,225,2014-08-01T10:50:00,0,20762064,210093
OK,225,36,819,225,2014-08-01T10:55:00,0,20762513,210093
OK,225,36,819,225,2014-08-01T11:00:00,0,20762962,210093
OK,225,36,819,225,2014-08-01T11:05:00,0,20763411,210093
OK,225,36,819,225,2014-08-01T11:10:00,0,20763860,210093
OK,225,36,819,225,2014-08-01T11:15:00,0,20764308,210093
OK,225,36,819,225,2014-08-01T11:20:00,0,20764757,210093
OK,225,36,819,225,2014-08-01T11:25:00,0,20765206,210093
OK,225,36,819,225,2014-08-01T11:30:00,0,20765655,210093
OK,225,36,819,225,2014-08-01T11:35:00,0,20766104,210093
OK,225,36,819,225,2014-08-01T11:40:00,0,20766553,210093
OK,225,36,819,225,2014-08-01T11:45:00,0,20767002,210093
OK,225,36,819,225,2014-08-01T11:50:00,0,20767451,210093
OK,225,36,819,225,2014-08-01T11:55:00,0,20767900,210093
OK,414,19,819,414,2014-08-01T12:00:00,1,20768349,210093
OK,414,19,819,414,2014-08-01T12:05:00,1,20768798,210093
OK,414,19,819,414,2014-08-01T12:10:00,0,20769247,210093
OK,414,19,819,414,2014-08-01T12:15:00,0,20769696,210093
OK,414,19,819,414,2014-08-01T12:20:00,0,20770145,210093
OK,414,19,819,414,2014-08-01T12:25:00,0,20770594,210093
OK,414,19,819,414,2014-08-01T12:30:00,0,20771043,210093
OK,414,19,819,414,2014-08-01T12:35:00,0,20771492,210093
OK,414,19,819,414,2014-08-01T12:40:00,0,20771941,210093
OK,414,19,819,414,2014-08-01T12:45:00,0,20772390,210093
OK,257,31,819,257,2014-08-01T12:50:00,1,20772839,210093
OK,257,31,819,257,2014-08-01T12:55:00,1,20773288,210093
OK,257,31,819,257,2014-08-01T13:00:00,0,20773737,210093
OK,257,31,819,257,2014-08-01T13:05:00,0,20774186,210093
OK,257,31,819,257,2014-08-01T13:10:00,0,20774635,210093
OK,257,31,819,257,2014-08-01T13:15:00,0,20775084,210093
OK,257,31,819,257,2014-08-01T13:20:00,0,20775533,210093
OK,257,31,819,257,2014-08-01T13:25:00,0,20775982,210093
OK,257,31,819,257,2014-08-01T13:30:00,0,20776431,210093
OK,257,31,819,257,2014-08-01T13:35:00,0,20776880,210093
OK,257,31,819,257,2014-08-01T13:40:00,0,20777329,210093
OK,257,31,819,257,2014-08-01T13:45:00,0,20777778,210093
OK,257,31,819,257,2014-08-01T13:50:00,0,20778227,210093
OK,257,31,819,257,2014-08-01T13:55:00,0,20778676,210093
OK,257,31,819,257,2014-08-01T14:00:00,0,20779125,210093
OK,257,31,819,257,2014-08-01T14:05:00,0,20779574,210093
OK,257,31,819,257,2014-08-01T14:10:00,0,20780023,210093
OK,241,34,819,241,2014-08-01T14:15:00,1,20780472,210093
OK,241,34,819,241,2014-08-01T14:20:00,1,20780921,210093
OK,241,34,819,241,2014-08-01T14:25:00,0,20781370,210093
OK,210,39,819,210,2014-08-01T14:30:00,1,20781819,210093
OK,210,39,819,210,2014-08-01T14:35:00,1,20782268,210093
OK,178,46,819,178,2014-08-01T14:40:00,1,20782717,210093
OK,178,46,819,178,2014-08-01T14:45:00,1,20783166,210093
OK,444,18,819,444,2014-08-01T14:50:00,1,20783615,210093
OK,444,18,819,444,2014-08-01T14:55:00,1,20784064,210093
OK,444,18,819,444,2014-08-01T15:00:00,0,20784513,210093
OK,444,18,819,444,2014-08-01T15:05:00,0,20784962,210093
OK,444,18,819,444,2014-08-01T15:10:00,0,20785411,210093
OK,444,18,819,444,2014-08-01T15:15:00,0,20785860,210093
OK,444,18,819,444,2014-08-01T15:20:00,0,20786309,210093
OK,444,18,819,444,2014-08-01T15:25:00,0,20786758,210093
OK,444,18,819,444,2014-08-01T15:30:00,0,20787207,210093
OK,444,18,819,444,2014-08-01T15:35:00,0,20787656,210093
OK,444,18,819,444,2014-08-01T15:40:00,0,20788105,210093
OK,444,18,819,444,2014-08-01T15:45:00,0,20788554,210093
OK,444,18,819,444,2014-08-01T15:50:00,0,20789003,210093
OK,444,18,819,444,2014-08-01T15:55:00,0,20789452,210093
OK,444,18,819,444,2014-08-01T16:00:00,0,20789901,210093
OK,444,18,819,444,2014-08-01T16:05:00,0,20790350,210093
OK,444,18,819,444,2014-08-01T16:10:00,0,20790799,210093
OK,444,18,819,444,2014-08-01T16:15:00,0,20791248,210093
OK,444,18,819,444,2014-08-01T16:20:00,0,20791697,210093
OK,444,18,819,444,2014-08-01T16:25:00,0,20792146,210093
OK,444,18,819,444,2014-08-01T16:30:00,0,20792595,210093
OK,444,18,819,444,2014-08-01T16:35:00,0,20793044,210093
OK,444,18,819,444,2014-08-01T16:40:00,0,20793493,210093
OK,444,18,819,444,2014-08-01T16:45:00,0,20793942,210093
OK,444,18,819,444,2014-08-01T16:50:00,0,20794391,210093
OK,444,18,819,444,2014-08-01T16:55:00,0,20794840,210093
OK,444,18,819,444,2014-08-01T17:00:00,0,20795289,210093
OK,444,18,819,444,2014-08-01T17:05:00,0,20795738,210093
OK,444,18,819,444,2014-08-01T17:10:00,0,20796187,210093
OK,444,18,819,444,2014-08-01T17:15:00,0,20796636,210093
OK,444,18,819,444,2014-08-01T17:20:00,0,20797085,210093
OK,444,18,819,444,2014-08-01T17:25:00,0,20797534,210093
OK,444,18,819,444,2014-08-01T17:30:00,0,20797983,210093
OK,444,18,819,444,2014-08-01T17:35:00,0,20798432,210093
OK,444,18,819,444,2014-08-01T17:40:00,0,20798881,210093
OK,444,18,819,444,2014-08-01T17:45:00,0,20799330,210093
OK,444,18,819,444,2014-08-01T17:50:00,0,20799779,210093
OK,444,18,819,444,2014-08-01T17:55:00,0,20800228,210093
OK,444,18,819,444,2014-08-01T18:00:00,0,20800677,210093
OK,444,18,819,444,2014-08-01T18:05:00,0,20801126,210093
OK,444,18,819,444,2014-08-01T18:10:00,0,20801575,210093
OK,444,18,819,444,2014-08-01T18:15:00,0,20802024,210093
OK,444,18,819,444,2014-08-01T18:20:00,0,20802473,210093
OK,167,49,819,167,2014-08-01T18:25:00,1,20802922,210093
OK,167,49,819,167,2014-08-01T18:30:00,1,20803371,210093
OK,167,49,819,167,2014-08-01T18:35:00,0,20803820,210093
OK,167,49,819,167,2014-08-01T18:40:00,0,20804269,210093
OK,167,49,819,167,2014-08-01T18:45:00,0,20804718,210093
OK,167,49,819,167,2014-08-01T18:50:00,0,20805167,210093
OK,167,49,819,167,2014-08-01T18:55:00,0,20805616,210093
OK,167,49,819,167,2014-08-01T19:00:00,0,20806065,210093
OK,167,49,819,167,2014-08-01T19:05:00,0,20806514,210093
OK,167,49,819,167,2014-08-01T19:10:00,0,20806963,210093
OK,167,49,819,167,2014-08-01T19:15:00,0,20807412,210093
OK,167,49,819,167,2014-08-01T19:20:00,0,20807861,210093
OK,167,49,819,167,2014-08-01T19:25:00,0,20808310,210093
OK,167,49,819,167,2014-08-01T19:30:00,0,20808759,210093
OK,167,49,819,167,2014-08-01T19:35:00,0,20809208,210093
OK,167,49,819,167,2014-08-01T19:40:00,0,20809657,210093
OK,167,49,819,167,2014-08-01T19:45:00,0,20810106,210093
OK,167,49,819,167,2014-08-01T19:50:00,0,20810555,210093
OK,167,49,819,167,2014-08-01T19:55:00,0,20811004,210093
OK,167,49,819,167,2014-08-01T22:00:00,0,20816733,210093
OK,167,49,819,167,2014-08-01T22:05:00,0,20817182,210093
OK,167,49,819,167,2014-08-01T22:10:00,0,20817504,210093
OK,202,40,819,202,2014-08-02T00:00:00,0,20823172,210093
OK,202,40,819,202,2014-08-02T00:05:00,0,20823621,210093
OK,202,40,819,202,2014-08-02T00:10:00,0,20824070,210093
OK,202,40,819,202,2014-08-02T00:15:00,0,20824519,210093
OK,202,40,819,202,2014-08-02T00:20:00,0,20824968,210093
OK,202,40,819,202,2014-08-02T00:25:00,0,20825417,210093
OK,202,40,819,202,2014-08-02T00:30:00,0,20825866,210093
OK,202,40,819,202,2014-08-02T00:35:00,0,20826315,210093
OK,202,40,819,202,2014-08-02T00:40:00,0,20826764,210093
OK,202,40,819,202,2014-08-02T00:45:00,0,20827213,210093
OK,202,40,819,202,2014-08-02T00:50:00,0,20827662,210093
OK,202,40,819,202,2014-08-02T00:55:00,0,20828111,210093
OK,202,40,819,202,2014-08-02T01:00:00,0,20828560,210093
OK,202,40,819,202,2014-08-02T01:05:00,0,20829009,210093
OK,202,40,819,202,2014-08-02T01:10:00,0,20829458,210093
OK,202,40,819,202,2014-08-02T01:15:00,0,20829907,210093
OK,202,40,819,202,2014-08-02T01:20:00,0,20830356,210093
OK,202,40,819,202,2014-08-02T01:25:00,0,20830805,210093
OK,202,40,819,202,2014-08-02T01:30:00,0,20831254,210093
OK,202,40,819,202,2014-08-02T01:35:00,0,20831703,210093
OK,202,40,819,202,2014-08-02T01:40:00,0,20832152,210093
OK,202,40,819,202,2014-08-02T01:45:00,0,20832601,210093
OK,202,40,819,202,2014-08-02T01:50:00,0,20833050,210093
OK,202,40,819,202,2014-08-02T01:55:00,0,20833499,210093
OK,202,40,819,202,2014-08-02T02:00:00,0,20833948,210093
OK,202,40,819,202,2014-08-02T02:05:00,0,20834397,210093
OK,202,40,819,202,2014-08-02T02:10:00,0,20834846,210093
OK,202,40,819,202,2014-08-02T02:15:00,0,20835295,210093
OK,202,40,819,202,2014-08-02T02:20:00,0,20835744,210093
OK,202,40,819,202,2014-08-02T02:25:00,0,20836193,210093
OK,220,37,819,220,2014-08-02T02:30:00,1,20836642,210093
OK,220,37,819,220,2014-08-02T02:35:00,0,20837091,210093
OK,220,37,819,220,2014-08-02T02:40:00,0,20837540,210093
OK,220,37,819,220,2014-08-02T02:45:00,0,20837989,210093
OK,220,37,819,220,2014-08-02T02:50:00,0,20838438,210093
OK,220,37,819,220,2014-08-02T02:55:00,0,20838887,210093
OK,220,37,819,220,2014-08-02T03:00:00,0,20839336,210093
OK,220,37,819,220,2014-08-02T03:05:00,0,20839785,210093
OK,220,37,819,220,2014-08-02T03:10:00,0,20840234,210093
OK,220,37,819,220,2014-08-02T03:15:00,0,20840683,210093
OK,220,37,819,220,2014-08-02T03:20:00,0,20841132,210093
OK,220,37,819,220,2014-08-02T03:25:00,0,20841581,210093
OK,220,37,819,220,2014-08-02T03:30:00,0,20842030,210093
OK,220,37,819,220,2014-08-02T03:35:00,0,20842479,210093
OK,220,37,819,220,2014-08-02T03:40:00,0,20842928,210093
OK,220,37,819,220,2014-08-02T03:45:00,0,20843377,210093
OK,220,37,819,220,2014-08-02T03:50:00,0,20843826,210093
OK,220,37,819,220,2014-08-02T03:55:00,0,20844275,210093
OK,220,37,819,220,2014-08-02T04:10:00,0,20845152,210093
OK,220,37,819,220,2014-08-02T04:20:00,0,20845721,210093
OK,220,37,819,220,2014-08-02T04:30:00,0,20846277,210093
OK,220,37,819,220,2014-08-02T04:35:00,0,20846644,210093
OK,220,37,819,220,2014-08-02T04:40:00,0,20847011,210093
OK,220,37,819,220,2014-08-02T04:45:00,0,20847286,210093
OK,220,37,819,220,2014-08-02T04:50:00,0,20847652,210093
OK,220,37,819,220,2014-08-02T05:20:00,0,20849423,210093
OK,220,37,819,220,2014-08-02T05:40:00,0,20850513,210093
OK,220,37,819,220,2014-08-02T05:50:00,0,20851172,210093
OK,220,37,819,220,2014-08-02T06:00:00,0,20851729,210093
OK,220,37,819,220,2014-08-02T06:05:00,0,20852178,210093
OK,220,37,819,220,2014-08-02T06:10:00,0,20852627,210093
OK,220,37,819,220,2014-08-02T06:15:00,0,20853076,210093
OK,220,37,819,220,2014-08-02T06:20:00,0,20853525,210093
OK,220,37,819,220,2014-08-02T06:25:00,0,20853974,210093
OK,220,37,819,220,2014-08-02T06:30:00,0,20854423,210093
OK,220,37,819,220,2014-08-02T06:35:00,0,20854872,210093
OK,220,37,819,220,2014-08-02T06:40:00,0,20855321,210093
OK,220,37,819,220,2014-08-02T06:45:00,0,20855770,210093
OK,220,37,819,220,2014-08-02T06:50:00,0,20856219,210093
OK,220,37,819,220,2014-08-02T06:55:00,0,20856668,210093
OK,220,37,819,220,2014-08-02T07:00:00,0,20857117,210093
OK,220,37,819,220,2014-08-02T07:05:00,0,20857566,210093
OK,220,37,819,220,2014-08-02T07:10:00,0,20858015,210093
OK,220,37,819,220,2014-08-02T07:15:00,0,20858464,210093
OK,220,37,819,220,2014-08-02T07:20:00,0,20858913,210093
OK,220,37,819,220,2014-08-02T07:25:00,0,20859362,210093
OK,220,37,819,220,2014-08-02T07:30:00,0,20859811,210093
OK,220,37,819,220,2014-08-02T07:35:00,0,20860260,210093
OK,220,37,819,220,2014-08-02T07:40:00,0,20860709,210093
OK,220,37,819,220,2014-08-02T07:45:00,0,20861158,210093
OK,220,37,819,220,2014-08-02T07:50:00,0,20861607,210093
OK,220,37,819,220,2014-08-02T07:55:00,0,20862056,210093
OK,221,37,819,221,2014-08-02T08:00:00,1,20862505,210093
OK,221,37,819,221,2014-08-02T08:05:00,0,20862954,210093
OK,221,37,819,221,2014-08-02T08:10:00,0,20863403,210093
OK,221,37,819,221,2014-08-02T08:15:00,0,20863852,210093
OK,221,37,819,221,2014-08-02T08:20:00,0,20864301,210093
OK,300,27,819,300,2014-08-02T08:25:00,1,20864750,210093
OK,300,27,819,300,2014-08-02T08:30:00,0,20865199,210093
OK,300,27,819,300,2014-08-02T08:35:00,0,20865648,210093
OK,300,27,819,300,2014-08-02T08:40:00,0,20866097,210093
OK,300,27,819,300,2014-08-02T08:45:00,0,20866546,210093
OK,300,27,819,300,2014-08-02T08:50:00,0,20866995,210093
OK,300,27,819,300,2014-08-02T08:55:00,0,20867444,210093
OK,300,27,819,300,2014-08-02T09:00:00,0,20867893,210093
OK,204,40,819,204,2014-08-02T09:05:00,1,20868342,210093
OK,204,40,819,204,2014-08-02T09:10:00,1,20868791,210093
OK,204,40,819,204,2014-08-02T09:15:00,0,20869240,210093
OK,204,40,819,204,2014-08-02T09:20:00,0,20869689,210093
OK,204,40,819,204,2014-08-02T09:25:00,0,20870138,210093
OK,204,40,819,204,2014-08-02T09:30:00,0,20870587,210093
OK,204,40,819,204,2014-08-02T09:35:00,0,20871036,210093
OK,204,40,819,204,2014-08-02T09:40:00,0,20871485,210093
OK,204,40,819,204,2014-08-02T09:45:00,0,20871934,210093
OK,164,50,819,164,2014-08-02T09:50:00,1,20872383,210093
OK,164,50,819,164,2014-08-02T09:55:00,1,20872832,210093
OK,164,50,819,164,2014-08-02T10:00:00,0,20873281,210093
OK,164,50,819,164,2014-08-02T10:05:00,0,20873730,210093
OK,164,50,819,164,2014-08-02T10:10:00,0,20874179,210093
OK,164,50,819,164,2014-08-02T10:15:00,0,20874628,210093
OK,164,50,819,164,2014-08-02T10:20:00,0,20875077,210093
OK,164,50,819,164,2014-08-02T10:25:00,0,20875526,210093
OK,164,50,819,164,2014-08-02T10:30:00,0,20875975,210093
OK,164,50,819,164,2014-08-02T10:35:00,0,20876424,210093
OK,208,39,819,208,2014-08-02T10:40:00,1,20876873,210093
OK,208,39,819,208,2014-08-02T10:45:00,1,20877322,210093
OK,208,39,819,208,2014-08-02T10:50:00,0,20877771,210093
OK,208,39,819,208,2014-08-02T10:55:00,0,20878220,210093
OK,208,39,819,208,2014-08-02T11:00:00,0,20878669,210093
OK,208,39,819,208,2014-08-02T11:05:00,0,20879118,210093
OK,208,39,819,208,2014-08-02T11:10:00,0,20879567,210093
OK,208,39,819,208,2014-08-02T11:15:00,0,20880016,210093
OK,208,39,819,208,2014-08-02T11:20:00,0,20880465,210093
OK,208,39,819,208,2014-08-02T11:25:00,0,20880914,210093
OK,208,39,819,208,2014-08-02T11:30:00,0,20881363,210093
OK,208,39,819,208,2014-08-02T11:35:00,0,20881812,210093
OK,347,23,819,347,2014-08-02T11:40:00,1,20882261,210093
OK,347,23,819,347,2014-08-02T11:45:00,1,20882710,210093
OK,347,23,819,347,2014-08-02T11:50:00,0,20883159,210093
OK,347,23,819,347,2014-08-02T11:55:00,0,20883608,210093
OK,347,23,819,347,2014-08-02T12:00:00,0,20884057,210093
OK,347,23,819,347,2014-08-02T12:05:00,0,20884506,210093
OK,347,23,819,347,2014-08-02T12:10:00,0,20884955,210093
OK,347,23,819,347,2014-08-02T12:15:00,0,20885404,210093
OK,347,23,819,347,2014-08-02T12:20:00,0,20885853,210093
OK,347,23,819,347,2014-08-02T12:25:00,0,20886302,210093
OK,347,23,819,347,2014-08-02T12:30:00,0,20886751,210093
OK,347,23,819,347,2014-08-02T12:35:00,0,20887200,210093
OK,347,23,819,347,2014-08-02T12:40:00,0,20887649,210093
OK,347,23,819,347,2014-08-02T12:45:00,0,20888098,210093
OK,347,23,819,347,2014-08-02T12:50:00,0,20888547,210093
OK,347,23,819,347,2014-08-02T12:55:00,0,20888996,210093
OK,347,23,819,347,2014-08-02T13:00:00,0,20889445,210093
OK,347,23,819,347,2014-08-02T13:05:00,0,20889894,210093
OK,347,23,819,347,2014-08-02T13:10:00,0,20890343,210093
OK,347,23,819,347,2014-08-02T13:15:00,0,20890792,210093
OK,347,23,819,347,2014-08-02T13:20:00,0,20891241,210093
OK,347,23,819,347,2014-08-02T13:25:00,0,20891690,210093
OK,347,23,819,347,2014-08-02T13:30:00,0,20892139,210093
OK,347,23,819,347,2014-08-02T13:35:00,0,20892588,210093
OK,347,23,819,347,2014-08-02T13:40:00,0,20893037,210093
OK,347,23,819,347,2014-08-02T13:45:00,0,20893486,210093
OK,347,23,819,347,2014-08-02T13:50:00,0,20893935,210093
OK,347,23,819,347,2014-08-02T13:55:00,0,20894384,210093
OK,347,23,819,347,2014-08-02T14:00:00,0,20894833,210093
OK,347,23,819,347,2014-08-02T14:05:00,0,20895282,210093
OK,347,23,819,347,2014-08-02T14:10:00,0,20895731,210093
OK,347,23,819,347,2014-08-02T14:15:00,0,20896180,210093
OK,347,23,819,347,2014-08-02T14:20:00,0,20896629,210093
OK,347,23,819,347,2014-08-02T14:25:00,0,20897078,210093
OK,347,23,819,347,2014-08-02T14:30:00,0,20897527,210093
OK,347,23,819,347,2014-08-02T14:35:00,0,20897976,210093
OK,347,23,819,347,2014-08-02T14:40:00,0,20898425,210093
OK,347,23,819,347,2014-08-02T14:45:00,0,20898874,210093
OK,347,23,819,347,2014-08-02T14:50:00,0,20899323,210093
OK,347,23,819,347,2014-08-02T14:55:00,0,20899772,210093
OK,347,23,819,347,2014-08-02T15:00:00,0,20900221,210093
OK,347,23,819,347,2014-08-02T15:05:00,0,20900670,210093
OK,347,23,819,347,2014-08-02T15:10:00,0,20901119,210093
OK,347,23,819,347,2014-08-02T15:15:00,0,20901568,210093
OK,347,23,819,347,2014-08-02T15:20:00,0,20902017,210093
OK,245,33,819,245,2014-08-02T15:25:00,1,20902466,210093
OK,245,33,819,245,2014-08-02T15:30:00,2,20902915,210093
OK,251,32,819,251,2014-08-02T15:35:00,1,20903364,210093
OK,251,32,819,251,2014-08-02T15:40:00,1,20903813,210093
OK,251,32,819,251,2014-08-02T15:45:00,0,20904262,210093
OK,251,32,819,251,2014-08-02T15:50:00,0,20904711,210093
OK,251,32,819,251,2014-08-02T15:55:00,0,20905160,210093
OK,251,32,819,251,2014-08-02T16:00:00,0,20905609,210093
OK,251,32,819,251,2014-08-02T16:05:00,0,20906058,210093
OK,251,32,819,251,2014-08-02T16:10:00,0,20906507,210093
OK,189,43,819,189,2014-08-02T16:15:00,1,20906956,210093
OK,189,43,819,189,2014-08-02T16:20:00,1,20907405,210093
OK,189,43,819,189,2014-08-02T16:25:00,0,20907854,210093
OK,189,43,819,189,2014-08-02T16:30:00,0,20908303,210093
OK,189,43,819,189,2014-08-02T16:35:00,0,20908752,210093
OK,189,43,819,189,2014-08-02T16:40:00,0,20909201,210093
OK,189,43,819,189,2014-08-02T16:45:00,0,20909650,210093
OK,189,43,819,189,2014-08-02T16:50:00,0,20910099,210093
OK,189,43,819,189,2014-08-02T16:55:00,0,20910548,210093
OK,189,43,819,189,2014-08-02T17:00:00,0,20910997,210093
OK,189,43,819,189,2014-08-02T17:05:00,0,20911446,210093
OK,429,19,819,429,2014-08-02T17:10:00,1,20911895,210093
OK,429,19,819,429,2014-08-02T17:15:00,1,20912344,210093
OK,429,19,819,429,2014-08-02T17:20:00,0,20912793,210093
OK,429,19,819,429,2014-08-02T17:25:00,0,20913242,210093
OK,429,19,819,429,2014-08-02T17:30:00,0,20913691,210093
OK,429,19,819,429,2014-08-02T17:35:00,0,20914140,210093
OK,429,19,819,429,2014-08-02T17:40:00,0,20914589,210093
OK,429,19,819,429,2014-08-02T17:45:00,0,20915038,210093
OK,429,19,819,429,2014-08-02T17:50:00,0,20915487,210093
OK,429,19,819,429,2014-08-02T17:55:00,0,20915936,210093
OK,431,19,819,431,2014-08-02T18:00:00,1,20916385,210093
OK,431,19,819,431,2014-08-02T18:05:00,1,20916834,210093
OK,431,19,819,431,2014-08-02T18:10:00,0,20917283,210093
OK,431,19,819,431,2014-08-02T18:15:00,0,20917732,210093
OK,431,19,819,431,2014-08-02T18:20:00,0,20918181,210093
OK,431,19,819,431,2014-08-02T18:25:00,0,20918630,210093
OK,431,19,819,431,2014-08-02T18:30:00,0,20919079,210093
OK,431,19,819,431,2014-08-02T18:35:00,0,20919528,210093
OK,431,19,819,431,2014-08-02T18:40:00,0,20919977,210093
OK,431,19,819,431,2014-08-02T18:45:00,0,20920426,210093
OK,431,19,819,431,2014-08-02T18:50:00,0,20920875,210093
OK,431,19,819,431,2014-08-02T18:55:00,0,20921324,210093
OK,431,19,819,431,2014-08-02T19:00:00,0,20921773,210093
OK,431,19,819,431,2014-08-02T19:05:00,0,20922222,210093
OK,431,19,819,431,2014-08-02T19:10:00,0,20922671,210093
OK,431,19,819,431,2014-08-02T19:15:00,0,20923120,210093
OK,431,19,819,431,2014-08-02T19:20:00,0,20923569,210093
OK,431,19,819,431,2014-08-02T19:25:00,0,20924018,210093
OK,431,19,819,431,2014-08-02T19:30:00,0,20924467,210093
OK,431,19,819,431,2014-08-02T19:35:00,0,20924916,210093
OK,431,19,819,431,2014-08-02T19:40:00,0,20925365,210093
OK,431,19,819,431,2014-08-02T19:45:00,0,20925814,210093
OK,431,19,819,431,2014-08-02T19:50:00,0,20926263,210093
OK,431,19,819,431,2014-08-02T19:55:00,0,20926712,210093
OK,431,19,819,431,2014-08-02T20:00:00,0,20927161,210093
OK,431,19,819,431,2014-08-02T20:05:00,0,20927610,210093
OK,431,19,819,431,2014-08-02T20:10:00,0,20928059,210093
OK,431,19,819,431,2014-08-02T20:15:00,0,20928508,210093
OK,431,19,819,431,2014-08-02T20:20:00,0,20928957,210093
OK,431,19,819,431,2014-08-02T20:25:00,0,20929406,210093
OK,431,19,819,431,2014-08-02T20:30:00,0,20929855,210093
OK,431,19,819,431,2014-08-02T20:35:00,0,20930304,210093
OK,431,19,819,431,2014-08-02T20:40:00,0,20930753,210093
OK,431,19,819,431,2014-08-02T20:45:00,0,20931202,210093
OK,431,19,819,431,2014-08-02T20:50:00,0,20931651,210093
OK,431,19,819,431,2014-08-02T20:55:00,0,20932100,210093
OK,431,19,819,431,2014-08-02T21:00:00,0,20932549,210093
OK,151,54,819,151,2014-08-02T21:05:00,1,20932998,210093
OK,151,54,819,151,2014-08-02T21:10:00,0,20933447,210093
OK,151,54,819,151,2014-08-02T21:15:00,0,20933896,210093
OK,151,54,819,151,2014-08-02T21:20:00,0,20934345,210093
OK,151,54,819,151,2014-08-02T21:25:00,0,20934794,210093
OK,151,54,819,151,2014-08-02T21:30:00,0,20935243,210093
OK,151,54,819,151,2014-08-02T21:35:00,0,20935692,210093
OK,151,54,819,151,2014-08-02T21:40:00,0,20936141,210093
OK,326,25,819,326,2014-08-02T21:45:00,1,20936590,210093
OK,326,25,819,326,2014-08-02T21:50:00,0,20937039,210093
OK,326,25,819,326,2014-08-02T21:55:00,0,20937488,210093
OK,326,25,819,326,2014-08-02T22:00:00,0,20937937,210093
OK,326,25,819,326,2014-08-02T22:05:00,0,20938386,210093
OK,147,55,819,147,2014-08-02T22:10:00,1,20938835,210093
OK,147,55,819,147,2014-08-02T22:15:00,0,20939284,210093
OK,147,55,819,147,2014-08-02T22:20:00,0,20939733,210093
OK,147,55,819,147,2014-08-02T22:25:00,0,20940182,210093
OK,147,55,819,147,2014-08-02T22:30:00,0,20940631,210093
OK,147,55,819,147,2014-08-02T22:35:00,0,20941080,210093
OK,147,55,819,147,2014-08-02T22:40:00,0,20941529,210093
OK,147,55,819,147,2014-08-02T22:45:00,0,20941978,210093
OK,147,55,819,147,2014-08-02T22:50:00,0,20942427,210093
OK,147,55,819,147,2014-08-02T22:55:00,0,20942876,210093
OK,147,55,819,147,2014-08-02T23:00:00,0,20943325,210093
OK,147,55,819,147,2014-08-02T23:10:00,0,20943774,210093
OK,147,55,819,147,2014-08-02T23:15:00,0,20944223,210093
OK,147,55,819,147,2014-08-02T23:20:00,0,20944672,210093
OK,147,55,819,147,2014-08-02T23:25:00,0,20945121,210093
OK,147,55,819,147,2014-08-02T23:30:00,0,20945570,210093
OK,147,55,819,147,2014-08-02T23:35:00,0,20946019,210093
OK,147,55,819,147,2014-08-02T23:40:00,0,20946468,210093
OK,147,55,819,147,2014-08-02T23:45:00,0,20946917,210093